Simultaneous Nadir Overpasses (SNOs) Predictions

Prediction of SNOs between FY3D and AQUA Satellite Orbit:

Table of predicted SNOs for the next 14.0 days since TLE Epoch: 6/24/2023
Index Date (FY3D) Time (FY3D) Lat,Lon (FY3D) SZA (FY3D ) Date (AQUA) Time (AQUA) Lat,Lon (AQUA) SZA (AQUA ) Distance(km) Time Diff (sec)
1 06/24/2023 14:58:54 78.64, -63.48 55.88 06/24/2023 14:59:37 78.65, -63.59 55.88 2.62 43
2 06/24/2023 15:49:30 -78.28, 105.99 124.61 06/24/2023 15:48:52 -78.28, 105.98 124.60 0.23 38
3 06/27/2023 04:44:35 -78.75, -90.58 123.88 06/27/2023 04:45:13 -78.74, -90.47 123.91 2.44 38
4 06/27/2023 05:35:06 78.18, 80.19 55.35 06/27/2023 05:34:25 78.19, 80.08 55.37 2.69 41
5 06/29/2023 18:30:12 78.70,-116.62 56.18 06/29/2023 18:30:46 78.70,-116.59 56.16 0.64 34
6 06/29/2023 19:20:44 -78.19, 53.75 124.52 06/29/2023 19:19:58 -78.20, 53.67 124.49 2.07 46
7 07/02/2023 08:15:46 -78.56,-142.15 123.84 07/02/2023 08:16:15 -78.57,-142.27 123.83 3.02 29
8 07/02/2023 09:06:26 78.33, 26.56 55.85 07/02/2023 09:05:34 78.32, 26.68 55.85 2.92 52
9 07/04/2023 22:01:28 78.71,-169.43 56.58 07/04/2023 22:01:50 78.70,-169.32 56.56 2.61 22
10 07/04/2023 22:52:01 -78.24, 0.72 124.06 07/04/2023 22:51:03 -78.24, 0.77 124.05 1.29 58
11 07/07/2023 11:47:04 -78.70, 164.25 123.18 07/07/2023 11:47:19 -78.69, 164.39 123.20 3.05 15



Historial Predications of SNOs between FY3D and AQUA
